| time (UTC) | temp F | wind direction | speed MPH | gust MPH | rain 1hr in | rain 24hr in | rain mn in | humidity % | barometer mb |
| 20260508174629 | 61 | 300 | 2.0 | 13.0 | 0.00 | 0.01 | 0.00 | 41 | 1015.9 |
| 20260508173135 | 61 | 218 | 7.0 | 15.0 | 0.00 | 0.01 | 0.00 | 45 | 1016.2 |
| 20260508171639 | 61 | 277 | 2.0 | 9.0 | 0.00 | 0.01 | 0.00 | 51 | 1016.4 |
| 20260508170142 | 61 | 223 | 4.0 | 7.0 | 0.00 | 0.01 | 0.00 | 46 | 1016.7 |
| 20260508164636 | 60 | 220 | 2.0 | 8.0 | 0.00 | 0.01 | 0.00 | 45 | 1016.9 |
| 20260508163140 | 60 | 49 | 4.0 | 8.0 | 0.00 | 0.01 | 0.00 | 41 | 1017.0 |
| 20260508161641 | 60 | 67 | 2.0 | 4.0 | 0.00 | 0.01 | 0.00 | 38 | 1017.1 |
| 20260508160141 | 60 | 336 | 2.0 | 5.0 | 0.00 | 0.01 | 0.00 | 40 | 1017.4 |
| 20260508154639 | 58 | 327 | 1.0 | 5.0 | 0.00 | 0.01 | 0.00 | 41 | 1017.6 |
| 20260508151636 | 57 | 349 | 1.0 | 7.0 | 0.00 | 0.01 | 0.00 | 41 | 1017.8 |
| 20260508150137 | 56 | 31 | 2.0 | 5.0 | 0.00 | 0.01 | 0.00 | 41 | 1018.1 |
| 20260508144645 | 55 | 64 | 1.0 | 8.0 | 0.00 | 0.01 | 0.00 | 40 | 1018.1 |
| 20260508143125 | 55 | 88 | 2.0 | 6.0 | 0.00 | 0.01 | 0.00 | 40 | 1018.1 |
| 20260508140133 | 53 | 54 | 2.0 | 6.0 | 0.00 | 0.01 | 0.00 | 49 | 1018.2 |
| 20260508134625 | 51 | 232 | 0.0 | 3.0 | 0.00 | 0.01 | 0.00 | 54 | 1018.2 |
| 20260508133130 | 50 | 117 | 0.0 | 2.0 | 0.00 | 0.01 | 0.00 | 60 | 1018.1 |
| 20260508131627 | 47 | 117 | 0.0 | 1.0 | 0.00 | 0.01 | 0.00 | 76 | 1017.9 |
| 20260508130128 | 44 | 117 | 0.0 | 2.0 | 0.00 | 0.01 | 0.00 | 94 | 1017.9 |
| 20260508124630 | 43 | 117 | 0.0 | 1.0 | 0.00 | 0.01 | 0.00 | 96 | 1017.9 |
| 20260508123140 | 41 | 117 | 0.0 | 1.0 | 0.00 | 0.01 | 0.00 | 96 | 1017.9 |
| 20260508121645 | 38 | 117 | 0.0 | 0.0 | 0.00 | 0.01 | 0.00 | 96 | 1017.7 |
| 20260508120142 | 36 | 117 | 0.0 | 0.0 | 0.00 | 0.01 | 0.00 | 95 | 1017.4 |
| 20260508114638 | 33 | 117 | 0.0 | 0.0 | 0.00 | 0.04 | 0.00 | 95 | 1017.4 |
| 20260508113126 | 31 | 117 | 0.0 | 0.0 | 0.00 | 0.04 | 0.00 | 93 | 1017.0 |
| 20260508111638 | 31 | 117 | 0.0 | 0.0 | 0.00 | 0.04 | 0.00 | 93 | 1016.8 |
| 20260508110135 | 31 | 117 | 0.0 | 0.0 | 0.00 | 0.04 | 0.00 | 93 | 1016.5 |
| 20260508104625 | 31 | 117 | 0.0 | 0.0 | 0.00 | 0.16 | 0.00 | 93 | 1016.4 |
| 20260508103138 | 32 | 117 | 0.0 | 0.0 | 0.00 | 0.16 | 0.00 | 93 | 1016.1 |
| 20260508101646 | 32 | 117 | 0.0 | 0.0 | 0.00 | 0.16 | 0.00 | 93 | 1015.8 |
| 20260508100135 | 32 | 117 | 0.0 | 0.0 | 0.00 | 0.16 | 0.00 | 93 | 1015.5 |
| 20260508094643 | 33 | 117 | 0.0 | 3.0 | 0.00 | 0.18 | 0.00 | 93 | 1015.3 |
| 20260508093133 | 34 | 117 | 0.0 | 0.0 | 0.00 | 0.18 | 0.00 | 93 | 1015.3 |
| 20260508090139 | 35 | 117 | 0.0 | 0.0 | 0.00 | 0.18 | 0.00 | 93 | 1015.0 |
| 20260508084656 | 36 | 117 | 0.0 | 0.0 | 0.00 | 0.18 | 0.00 | 93 | 1014.9 |
| 20260508083158 | 36 | 117 | 0.0 | 2.0 | 0.00 | 0.18 | 0.00 | 93 | 1014.9 |
| 20260508081639 | 37 | 117 | 0.0 | 1.0 | 0.00 | 0.18 | 0.00 | 93 | 1014.9 |
| 20260508074649 | 38 | 117 | 0.0 | 0.0 | 0.00 | 0.18 | 0.00 | 93 | 1014.8 |
| 20260508073155 | 39 | 117 | 0.0 | 1.0 | 0.00 | 0.18 | 0.00 | 93 | 1014.7 |
| 20260508071645 | 40 | 117 | 0.0 | 1.0 | 0.00 | 0.18 | 0.00 | 93 | 1014.5 |
| 20260508070128 | 41 | 117 | 0.0 | 1.0 | 0.00 | 0.18 | 0.00 | 94 | 1014.4 |
| 20260508061637 | 43 | 117 | 0.0 | 3.0 | 0.00 | 0.21 | 0.00 | 95 | 1014.5 |
| 20260508060135 | 44 | 268 | 0.0 | 1.0 | 0.00 | 0.21 | 0.00 | 95 | 1014.7 |
| 20260508054647 | 44 | 268 | 1.0 | 4.0 | 0.00 | 0.21 | 0.00 | 95 | 1014.9 |
| 20260508053126 | 44 | 242 | 1.0 | 2.0 | 0.00 | 0.21 | 0.00 | 95 | 1014.6 |
| 20260508051634 | 45 | 240 | 0.0 | 3.0 | 0.00 | 0.21 | 0.00 | 95 | 1014.5 |
| 20260508050151 | 45 | 244 | 2.0 | 7.0 | 0.00 | 0.21 | 0.00 | 95 | 1014.3 |
| 20260508044653 | 45 | 211 | 0.0 | 3.0 | 0.00 | 0.23 | 0.00 | 95 | 1014.2 |
| 20260508043139 | 45 | 34 | 1.0 | 6.0 | 0.00 | 0.23 | 0.00 | 95 | 1013.9 |
| 20260508041630 | 44 | 225 | 0.0 | 3.0 | 0.00 | 0.23 | 0.00 | 95 | 1013.8 |
| 20260508034656 | 44 | 265 | 1.0 | 3.0 | 0.00 | 0.24 | 0.23 | 95 | 1013.6 |
| 20260508033137 | 43 | 154 | 0.0 | 2.0 | 0.00 | 0.24 | 0.23 | 95 | 1013.7 |
| 20260508031634 | 43 | 154 | 0.0 | 2.0 | 0.00 | 0.24 | 0.23 | 94 | 1013.7 |
| 20260508030136 | 42 | 154 | 0.0 | 3.0 | 0.00 | 0.24 | 0.23 | 94 | 1013.6 |
| 20260508023148 | 41 | 206 | 0.0 | 1.0 | 0.00 | 0.26 | 0.23 | 94 | 1013.1 |
| 20260508021650 | 41 | 206 | 0.0 | 0.0 | 0.00 | 0.26 | 0.23 | 93 | 1013.2 |
| 20260508020138 | 41 | 206 | 0.0 | 1.0 | 0.00 | 0.26 | 0.23 | 93 | 1012.9 |
| 20260508014648 | 41 | 206 | 0.0 | 0.0 | 0.00 | 0.37 | 0.23 | 92 | 1012.4 |
| 20260508013128 | 42 | 206 | 0.0 | 0.0 | 0.00 | 0.37 | 0.23 | 92 | 1012.3 |
| 20260508010150 | 43 | 206 | 0.0 | 3.0 | 0.00 | 0.37 | 0.23 | 92 | 1011.7 |
| 20260508004639 | 44 | 206 | 0.0 | 1.0 | 0.00 | 0.39 | 0.23 | 92 | 1011.5 |
| 20260508003140 | 45 | 206 | 0.0 | 1.0 | 0.00 | 0.39 | 0.23 | 92 | 1011.3 |
| 20260508001614 | 45 | 206 | 1.0 | 2.0 | 0.00 | 0.39 | 0.23 | 93 | 1011.3 |
| 20260508000013 | 46 | 206 | 0.0 | 2.0 | 0.00 | 0.40 | 0.23 | 93 | 1011.4 |
| 20260507234520 | 46 | 206 | 0.0 | 2.0 | 0.00 | 0.40 | 0.23 | 93 | 1011.3 |
| 20260507233102 | 46 | 227 | 2.0 | 5.0 | 0.00 | 0.40 | 0.23 | 93 | 1011.3 |
| 20260507231501 | 46 | 311 | 1.0 | 6.0 | 0.00 | 0.40 | 0.23 | 93 | 1011.3 |
| 20260507230112 | 46 | 242 | 0.0 | 4.0 | 0.00 | 0.40 | 0.23 | 93 | 1011.3 |
| 20260507224515 | 46 | 197 | 2.0 | 6.0 | 0.00 | 0.40 | 0.23 | 94 | 1011.4 |
| 20260507223005 | 46 | 232 | 1.0 | 6.0 | 0.00 | 0.40 | 0.23 | 94 | 1011.1 |
| 20260507221516 | 46 | 215 | 3.0 | 6.0 | 0.00 | 0.40 | 0.23 | 95 | 1011.0 |
| 20260507220011 | 45 | 237 | 3.0 | 5.0 | 0.01 | 0.40 | 0.23 | 94 | 1010.8 |
| 20260507213018 | 45 | 229 | 3.0 | 7.0 | 0.01 | 0.40 | 0.23 | 94 | 1010.5 |
| 20260507211514 | 45 | 200 | 3.0 | 7.0 | 0.01 | 0.40 | 0.23 | 94 | 1010.5 |
| 20260507210111 | 45 | 220 | 3.0 | 6.0 | 0.00 | 0.39 | 0.22 | 94 | 1010.4 |
| 20260507204613 | 46 | 155 | 1.0 | 4.0 | 0.00 | 0.39 | 0.22 | 94 | 1010.1 |
| 20260507203003 | 46 | 340 | 1.0 | 7.0 | 0.00 | 0.39 | 0.22 | 94 | 1010.0 |
| 20260507201605 | 47 | 233 | 4.0 | 7.0 | 0.00 | 0.39 | 0.22 | 94 | 1009.9 |
| 20260507200029 | 47 | 236 | 3.0 | 6.0 | 0.00 | 0.39 | 0.22 | 95 | 1009.8 |
| 20260507194617 | 47 | 175 | 4.0 | 7.0 | 0.00 | 0.39 | 0.22 | 94 | 1009.4 |
| 20260507193019 | 48 | 223 | 3.0 | 7.0 | 0.00 | 0.39 | 0.22 | 95 | 1009.4 |
| 20260507191509 | 48 | 190 | 2.0 | 5.0 | 0.00 | 0.39 | 0.22 | 94 | 1009.3 |
| 20260507190110 | 48 | 243 | 2.0 | 5.0 | 0.00 | 0.39 | 0.22 | 94 | 1009.5 |
| 20260507184502 | 49 | 90 | 2.0 | 5.0 | 0.00 | 0.39 | 0.22 | 94 | 1009.6 |
| 20260507183021 | 49 | 205 | 1.0 | 6.0 | 0.00 | 0.39 | 0.22 | 94 | 1009.7 |
| 20260507181516 | 49 | 55 | 1.0 | 6.0 | 0.00 | 0.39 | 0.22 | 94 | 1009.7 |
| 20260507180011 | 50 | 212 | 2.0 | 6.0 | 0.00 | 0.39 | 0.22 | 94 | 1009.5 |